ENALENRA

Guest
Details From ENAL - Ålesund Lufthavn, Vigra
To ENRA - Mo I Rana Rossvoll
Flight Number -
Tags Generated
Created
Modified
Stats Distance 312 nm / 578 km
Max Altitude 0 ft / 0 m
Waypoints 3
Social Downloads 1
Likes 0
Share VATSIM

Download

Looking for another format? Having issues loading an existing format? Contact us
Advertisement - Login to hide

Notes

Generated

Route

ENAL GR ENRA

ID Type Via Altitude Latitude Longitude Leg Dist Tot Dist Heading (true) Name
O ENAL APT - 0 ft / 0 m 62.55593˚ 6.08984˚ - 0 nm - -
GR NDB - 0 ft / 0 m 66.32169˚ 14.21360˚ 308 nm 308 nm 39° / 47° Gruben NDB
O ENRA APT - 0 ft / 0 m 66.36667˚ 14.29540˚ 3 nm 311 nm 36° / 36° -

Altitude Profile

Advertisement - Login to hide

Weather


0- 5 10 15 20 25 30 35+ Temperature / ° C

Clouds and Precipitation
Forecast for 2018-05-25 18:00 UTC. Updated 6 hours ago

Ground ~20,000 ft ~40,000 ft Winds

ENAL

Details ICAO ENAL (AES)
Name Alesund lufthavn - Vigra
Region Norway
Timezone Europe/Oslo (UTC+2.0)
Stats Elevation 69 ft / 21 m (AMSL)
Location 62.560371° 6.110165°
Runways 1
Magnetic Variation 1.247° E

METAR

ENAL 252220Z AUTO 04009KT 9999 FEW009/// OVC012/// 08/08 Q1033

Decode

TAF

Not found

Departure Runways

ID Width Length Bearing (true) Bearing (mag) Surface Threshold Offset Overrun Length
07 148 ft / 45 m 7,563 ft / 2,305 m 64.61° 63.36° Asphalt 492 ft / 150 m 0 ft / 0 m
25 148 ft / 45 m 7,563 ft / 2,305 m 244.65° 243.40° Asphalt 758 ft / 231 m 0 ft / 0 m

ENRA

Details ICAO ENRA (MQN)
Name Mo i Rana Rossvoll
Region Norway
Timezone Europe/Oslo (UTC+2.0)
Stats Elevation 226 ft / 69 m (AMSL)
Location 66.363838° 14.301646°
Runways 1
Magnetic Variation 5.621° E

METAR

ENRA 252150Z 24004KT 9999 FEW016 SCT020 BKN030 08/06 Q1030

Decode

TAF

Not found

Destination Runways

ID Width Length Bearing (true) Bearing (mag) Surface Threshold Offset Overrun Length
14 98 ft / 30 m 2,759 ft / 841 m 138.49° 132.87° Asphalt 0 ft / 0 m 0 ft / 0 m
32 98 ft / 30 m 2,759 ft / 841 m 318.51° 312.89° Asphalt 0 ft / 0 m 0 ft / 0 m

Approach Navaids

Runway Type Ident Frequency Range Bearing (true) Bearing (mag) Slope Elevation
32 Localiser RA 111.30 MHz 50 nm / 93 km 80.51° 74.89° - 462 ft / 141 m (AMSL)
32 DME RA 111.30 MHz 50 nm / 93 km - - - 462 ft / 141 m (AMSL)